Regional Weather Roundup
Issued by NWS

Home | Current Version | Previous Version | Text Only | Print | Product List | Glossary Off
Versions: 1 2 3 4 5 6 7 8 9 10 11 12 13 14 15 16 17 18 19 20 21 22 23 24 25 26 27 28 29 30 31 32 33 34 35 36 37 38 39 40 41 42 43 44 45 46 47 48 49 50

000
ASUS43 KLMK 220402
RWRKY
KENTUCKY REGIONAL WEATHER ROUNDUP
NATIONAL WEATHER SERVICE LOUISVILLE KY
1100 PM EST FRI NOV 21 2014

NOTE "FAIR" INDICATES FEW OR NO CLOUDS BELOW 12,000 FEET
WITH NO SIGNIFICANT WEATHER AND/OR OBSTRUCTIONS TO VISIBILITY.

KYZ001>023-026-027-061>063-070>075-220500-
WESTERN AND SOUTH CENTRAL KENTUCKY

CITY           SKY/WX    TMP DP  RH WIND       PRES   REMARKS
PADUCAH        CLOUDY    46  27  47 SE7       30.29F
HENDERSON      CLOUDY    43  21  42 SE6       30.33S
OWENSBORO      CLOUDY    42  22  45 SE9       30.34F
HOPKINSVILLE   CLOUDY    44  24  46 E6        30.33F
BOWLING GREEN  CLOUDY    42  22  44 E3        30.37F
GLASGOW        NOT AVBL
$$

KYZ024-025-028>034-038-045-046-053-220500-
NORTH CENTRAL KENTUCKY

CITY           SKY/WX    TMP DP  RH WIND       PRES   REMARKS
LOUISVILLE/SDF MOCLDY    34  15  46 CALM      30.37F
LOUISVILLE/LOU PTCLDY    34  13  41 CALM      30.38F
FORT KNOX      CLOUDY    35  16  47 E6        30.34F WCI  30
$$

KYZ035>037-039>044-047>052-055>060-089>105-220500-
NORTHEAST KENTUCKY

CITY           SKY/WX    TMP DP  RH WIND       PRES   REMARKS
LEXINGTON      CLEAR     30  13  49 SE9       30.39F WCI  22
COVINGTON      CLEAR     26  10  50 SE6       30.38F WCI  19
FRANKFORT      CLEAR     28  14  55 SE5       30.38F WCI  23
$$

KYZ054-064>069-076>088-106>120-220500-
SOUTHEAST KENTUCKY

CITY           SKY/WX    TMP DP  RH WIND       PRES   REMARKS
JACKSON        CLEAR     32   9  38 E3        30.40S
LONDON         CLEAR     27  18  69 CALM      30.41S
SOMERSET       NOT AVBL
MIDDLESBORO    NOT AVBL
MONTICELLO     PTCLDY    26  20  78 CALM      30.42F
$$




USA.gov is the U.S. government's official web portal to all federal, state and local government web resources and services.